Location: ???????
(38.3360°N, 23.6977°E)
Time: 23:47:40
(UTC+00:00)

SMAP - Pass Details

Date: 17 November 2025
Orbit: 681 x 683 km, 98.1° (Epoch: 09 December)

Event Time Altitude Azimuth Distance (km) Brightness Sun altitude
Rises 15:54:25 0° 167° (SSE) 3,030 6.5 -8.8°
Reaches altitude 10° 15:56:38 10° 168° (SSE) 2,119 5.7 -9.2°
Maximum altitude 16:01:17 85° 256° (WSW) 691 3.1 -10.0°
Drops below altitude 10° 16:05:58 10° 346° (NNW) 2,133 5.6 -10.9°
Sets 16:08:12 0° 347° (NNW) 3,052 6.4 -11.4°
